User: anonymous
Location: Oshawa
(43.9000°N, 78.8670°W)
Time: 11:19:20
(UTC-04:00)
Language:

IDEFIX/ARIANE 42P - Orbit

View from above orbital plane
View from above orbital plane
View from above satellite
View from above satellite

Ground track
Ground track

The orbit data is extracted from the following two-line orbital elements,

1 27422U 02021B   14234.76684493  .00000061  00000-0  40250-4 0  5676
2 27422 098.2945 274.0722 0013074 052.1215 081.4659 14.29041006639649
Epoch (UTC): 22 August 2014 18:24:15
Eccentricity: 0.0013074
inclination: 98.2945°
perigee height: 785 km
apogee height: 804 km
right ascension of ascending node: 274.0722°
argument of perigee: 52.1215°
revolutions per day: 14.29041006
mean anomaly at epoch: 81.4659°
orbit number at epoch: 63964

The dashed part of the orbit path shows where the satellite is in the earth's shadow,  

DLR